Regional Weather Roundup
Issued by NWS Sioux Falls, SD

Home | Current Version | Previous Version | Graphics & Text | Print | Product List | Glossary Off
Versions: 1 2 3 4 5 6 7 8 9 10 11 12 13 14 15 16 17 18 19 20 21 22 23 24 25 26 27 28 29 30 31 32 33 34 35 36 37 38 39 40 41 42 43 44 45 46 47 48 49 50

009
ASUS43 KFSD 231602
RWRFSD

WEATHER ROUNDUP FOR SE SOUTH DAKOTA/SW MINNESOTA/NW IOWA
NATIONAL WEATHER SERVICE SIOUX FALLS SD
1100 AM CDT TUE AUG 23 2016

NOTE: "FAIR" INDICATES FEW OR NO CLOUDS BELOW 12,000 FEET WITH NO
SIGNIFICANT WEATHER AND OR OBSTRUCTIONS TO VISIBILITY.


SDZ038>040-050-052>070-231700-
SOUTHEAST SOUTH DAKOTA

CITY           SKY/WX    TMP DP  RH WIND       PRES   REMARKS
BROOKINGS      MOSUNNY   75  64  68 S20G26    29.83S
CHAMBERLAIN    SUNNY     84  65  53 S15G23    29.74R
HURON          SUNNY     79  63  57 S16G28    29.74S
MADISON        FAIR      72  68  88 S21G26    29.84S
MITCHELL       SUNNY     78  64  61 S18G28    29.79R
SIOUX FALLS    PTSUNNY   74  67  78 S20G25    29.86S
WINNER         FAIR      83  65  54 S17       29.75R
YANKTON        CLOUDY    68  64  88 S10       29.85R
$$

MNZ071-072-080-081-089-090-097-098-231700-
SOUTHWEST MINNESOTA

CITY           SKY/WX    TMP DP  RH WIND       PRES   REMARKS
JACKSON        MOSUNNY   73  63  68 S14G23    29.94S
LUVERNE        CLOUDY    72  63  73 S14       29.90R
MARSHALL       MOSUNNY   77  66  68 S15       29.84S
MONTEVIDEO     SUNNY     79  66  65 SW12      29.84S
REDWOOD FALLS  MOSUNNY   77  64  64 S20G25    29.87F
TRACY          CLOUDY    76  67  72 S13G18    29.87S
WINDOM         PTSUNNY   75  64  69 S12G18    29.91S
WORTHINGTON    CLOUDY    72  66  81 S16       29.92S
$$

IAZ001>003-012>014-020>022-031-032-NEZ013-014-SDZ071-231700-
NORTHWEST IOWA

CITY           SKY/WX    TMP DP  RH WIND       PRES   REMARKS
CHEROKEE       CLOUDY    75  70  82 S12       29.93F
DENISON        MOSUNNY   75  70  83 S15G24    29.94S
ESTHERVILLE    CLOUDY    73  68  84 S16G24    29.95S
LE MARS        CLOUDY    73  68  83 S14       29.92R
ORANGE CITY    CLOUDY    73  70  88 S10G16    29.92R
SHELDON        CLOUDY    73  70  88 S15G21    29.90S
SIOUX CITY     PTSUNNY   72  66  81 SE13      29.90S
SPENCER        CLOUDY    74  66  76 SE14      29.94S
STORM LAKE     PTSUNNY   75  70  83 S15G22    29.95F
$$

ABBREVIATIONS USED IN REMARKS
   TC - TEMPERATURE IN CELSIUS
  WCI - WIND CHILL INDEX
   HX - HEAT INDEX
  VSB - VISIBILITY





USA.gov is the U.S. government's official web portal to all federal, state and local government web resources and services.